Time,TemperatureF,DewpointF,PressureIn,WindDirection,WindDirectionDegrees,WindSpeedMPH,WindSpeedGustMPH,Humidity,HourlyPrecipIn,Conditions,Clouds,dailyrainin,SoftwareType,DateUTC
2013-05-30 00:03:00,49.8,46.4,29.84,SW,217,0.0,0.9,88,0.00,,,0.00,meteobridge,2013-05-30 07:03:00,
2013-05-30 00:18:00,49.5,46.4,29.84,WNW,290,0.0,0.9,89,0.00,,,0.00,meteobridge,2013-05-30 07:18:00,
2013-05-30 00:33:00,49.6,46.2,29.85,SSW,212,0.9,2.9,88,0.00,,,0.00,meteobridge,2013-05-30 07:33:00,
2013-05-30 00:48:00,49.8,46.0,29.85,SSW,207,0.0,0.9,87,0.00,,,0.00,meteobridge,2013-05-30 07:48:00,
2013-05-30 01:04:00,49.8,46.0,29.85,SSW,207,0.0,0.0,87,0.00,,,0.00,meteobridge,2013-05-30 08:04:00,
2013-05-30 01:19:00,49.8,46.0,29.86,SSW,213,0.9,4.9,87,0.00,,,0.00,meteobridge,2013-05-30 08:19:00,
2013-05-30 01:34:00,49.6,45.9,29.86,SW,217,0.0,4.0,87,0.00,,,0.00,meteobridge,2013-05-30 08:34:00,
2013-05-30 01:49:00,49.5,45.7,29.86,SW,217,0.0,0.9,87,0.00,,,0.00,meteobridge,2013-05-30 08:49:00,
2013-05-30 02:04:00,48.9,45.0,29.87,SW,233,0.0,0.9,86,0.00,,,0.00,meteobridge,2013-05-30 09:04:00,
2013-05-30 02:19:00,48.2,44.6,29.87,SW,224,0.9,2.0,87,0.00,,,0.00,meteobridge,2013-05-30 09:19:00,
2013-05-30 02:34:00,47.7,43.7,29.88,SSE,158,0.0,0.0,86,0.00,,,0.00,meteobridge,2013-05-30 09:34:00,
2013-05-30 02:49:00,47.5,43.9,29.88,SW,226,0.0,2.0,87,0.00,,,0.00,meteobridge,2013-05-30 09:49:00,
2013-05-30 03:04:00,47.3,43.9,29.87,South,170,0.9,2.0,88,0.00,,,0.00,meteobridge,2013-05-30 10:04:00,
2013-05-30 03:19:00,47.3,43.9,29.87,SSE,153,0.9,2.0,88,0.00,,,0.00,meteobridge,2013-05-30 10:19:00,
2013-05-30 03:34:00,47.3,43.9,29.88,WSW,238,0.0,0.9,88,0.00,,,0.00,meteobridge,2013-05-30 10:34:00,
2013-05-30 03:49:00,46.9,43.3,29.89,SSW,207,0.9,0.9,87,0.00,,,0.00,meteobridge,2013-05-30 10:49:00,
2013-05-30 04:04:00,46.8,43.2,29.89,SSW,208,0.9,0.9,87,0.00,,,0.00,meteobridge,2013-05-30 11:04:00,
2013-05-30 04:19:00,46.6,42.6,29.89,SSW,202,0.9,2.9,86,0.00,,,0.00,meteobridge,2013-05-30 11:19:00,
2013-05-30 04:34:00,46.2,42.3,29.89,SSE,157,0.0,2.9,86,0.00,,,0.00,meteobridge,2013-05-30 11:34:00,
2013-05-30 04:49:00,45.9,42.3,29.90,SSW,212,0.0,2.0,87,0.00,,,0.00,meteobridge,2013-05-30 11:49:00,
2013-05-30 05:04:00,45.7,42.1,29.91,SSE,150,0.9,2.0,87,0.00,,,0.00,meteobridge,2013-05-30 12:04:00,
2013-05-30 05:19:00,45.7,41.7,29.91,SSW,197,0.0,4.9,86,0.00,,,0.00,meteobridge,2013-05-30 12:19:00,
2013-05-30 05:34:00,45.5,41.5,29.92,SW,218,0.9,2.9,86,0.00,,,0.00,meteobridge,2013-05-30 12:34:00,
2013-05-30 05:49:00,46.0,41.7,29.92,SSW,212,0.0,2.0,85,0.00,,,0.00,meteobridge,2013-05-30 12:49:00,
2013-05-30 06:04:00,45.9,41.5,29.92,WSW,253,0.0,0.9,85,0.00,,,0.00,meteobridge,2013-05-30 13:04:00,
2013-05-30 06:19:00,45.3,41.4,29.92,SW,236,0.0,0.9,86,0.00,,,0.00,meteobridge,2013-05-30 13:19:00,
2013-05-30 06:34:00,45.7,41.4,29.92,South,191,0.9,2.0,85,0.00,,,0.00,meteobridge,2013-05-30 13:34:00,
2013-05-30 06:49:00,46.0,41.5,29.93,South,179,0.9,0.9,84,0.00,,,0.00,meteobridge,2013-05-30 13:49:00,
2013-05-30 07:05:00,47.1,42.3,29.93,SSW,196,0.0,0.9,83,0.00,,,0.00,meteobridge,2013-05-30 14:05:00,
2013-05-30 07:20:00,46.9,41.7,29.94,SSW,209,0.0,2.9,82,0.00,,,0.00,meteobridge,2013-05-30 14:20:00,
2013-05-30 07:35:00,47.1,42.3,29.96,West,259,0.9,2.0,83,0.00,,,0.00,meteobridge,2013-05-30 14:35:00,
2013-05-30 07:50:00,47.5,42.3,29.96,SSW,200,0.0,2.9,82,0.00,,,0.00,meteobridge,2013-05-30 14:50:00,
2013-05-30 08:05:00,48.0,42.8,29.96,WSW,253,0.0,0.9,82,0.00,,,0.00,meteobridge,2013-05-30 15:05:00,
2013-05-30 08:20:00,49.1,43.2,29.97,SW,215,0.0,2.0,80,0.00,,,0.00,meteobridge,2013-05-30 15:20:00,
2013-05-30 08:35:00,51.1,44.1,29.97,SW,221,2.0,2.9,77,0.00,,,0.00,meteobridge,2013-05-30 15:35:00,
2013-05-30 08:50:00,51.8,43.7,29.98,SSW,213,0.9,0.9,74,0.00,,,0.00,meteobridge,2013-05-30 15:50:00,
2013-05-30 09:05:00,52.2,43.3,29.98,WNW,288,0.9,2.0,72,0.00,,,0.00,meteobridge,2013-05-30 16:05:00,
2013-05-30 09:20:00,53.2,43.0,29.98,South,171,2.0,4.0,68,0.00,,,0.00,meteobridge,2013-05-30 16:20:00,
2013-05-30 09:35:00,53.6,43.7,29.98,SSE,163,0.0,0.0,69,0.00,,,0.00,meteobridge,2013-05-30 16:35:00,
2013-05-30 09:50:00,54.9,43.3,29.98,SSE,155,0.0,2.0,65,0.00,,,0.00,meteobridge,2013-05-30 16:50:00,
2013-05-30 10:05:00,53.8,43.5,29.99,SSE,158,0.9,0.9,68,0.00,,,0.00,meteobridge,2013-05-30 17:05:00,
2013-05-30 10:20:00,53.8,43.5,29.99,South,169,2.0,2.0,68,0.00,,,0.00,meteobridge,2013-05-30 17:20:00,
2013-05-30 10:35:00,53.6,43.3,29.99,WNW,286,0.0,0.0,68,0.00,,,0.00,meteobridge,2013-05-30 17:35:00,
2013-05-30 10:50:00,53.8,42.6,29.99,SW,233,0.0,0.9,66,0.00,,,0.00,meteobridge,2013-05-30 17:50:00,
2013-05-30 11:06:00,54.3,43.5,30.00,SSW,203,0.0,0.0,67,0.00,,,0.00,meteobridge,2013-05-30 18:06:00,
2013-05-30 11:21:00,55.2,43.7,30.00,SW,214,0.0,2.0,65,0.00,,,0.00,meteobridge,2013-05-30 18:21:00,
2013-05-30 11:36:00,58.5,46.8,30.00,SSE,153,0.0,2.0,65,0.00,,,0.00,meteobridge,2013-05-30 18:36:00,
2013-05-30 11:51:00,58.3,43.5,30.00,SSE,158,2.0,6.0,58,0.00,,,0.00,meteobridge,2013-05-30 18:51:00,
2013-05-30 12:06:00,57.0,42.4,30.00,SSW,205,0.0,2.0,58,0.00,,,0.00,meteobridge,2013-05-30 19:06:00,
2013-05-30 12:21:00,56.5,43.2,30.00,SSW,212,0.0,2.0,61,0.00,,,0.00,meteobridge,2013-05-30 19:21:00,
2013-05-30 12:36:00,56.5,43.7,30.00,SSW,205,0.0,0.0,62,0.00,,,0.00,meteobridge,2013-05-30 19:36:00,
2013-05-30 12:51:00,57.4,43.2,30.00,WNW,283,0.0,2.9,59,0.00,,,0.00,meteobridge,2013-05-30 19:51:00,
2013-05-30 13:06:00,58.6,43.5,30.00,WSW,258,0.0,0.9,57,0.00,,,0.00,meteobridge,2013-05-30 20:06:00,
2013-05-30 13:21:00,59.2,43.5,30.00,SSE,147,0.0,0.9,56,0.00,,,0.00,meteobridge,2013-05-30 20:21:00,
2013-05-30 13:36:00,60.6,45.3,30.00,SSW,198,0.0,2.0,57,0.00,,,0.00,meteobridge,2013-05-30 20:36:00,
2013-05-30 13:51:00,61.2,43.0,30.01,SSE,165,0.9,2.9,51,0.00,,,0.00,meteobridge,2013-05-30 20:51:00,
2013-05-30 14:06:00,61.3,43.5,30.01,SW,233,0.0,2.9,52,0.00,,,0.00,meteobridge,2013-05-30 21:06:00,
2013-05-30 14:21:00,61.3,43.5,30.01,SW,219,0.9,6.0,52,0.00,,,0.00,meteobridge,2013-05-30 21:21:00,
2013-05-30 14:36:00,60.3,41.5,30.01,SSW,197,2.0,4.0,50,0.00,,,0.00,meteobridge,2013-05-30 21:36:00,
2013-05-30 14:51:00,59.4,41.2,30.01,West,259,0.0,2.0,51,0.00,,,0.00,meteobridge,2013-05-30 21:51:00,
2013-05-30 15:06:00,60.6,42.4,30.01,WSW,240,0.9,2.0,51,0.00,,,0.00,meteobridge,2013-05-30 22:06:00,
2013-05-30 15:21:00,61.9,42.4,30.01,WSW,245,0.0,2.9,49,0.00,,,0.00,meteobridge,2013-05-30 22:21:00,
2013-05-30 15:36:00,61.9,41.4,30.00,SSW,203,0.0,2.0,47,0.00,,,0.00,meteobridge,2013-05-30 22:36:00,
2013-05-30 15:51:00,62.4,40.3,30.01,WSW,255,0.9,2.0,44,0.00,,,0.00,meteobridge,2013-05-30 22:51:00,
2013-05-30 16:06:00,62.6,39.7,30.01,West,278,0.9,2.0,43,0.00,,,0.00,meteobridge,2013-05-30 23:06:00,
2013-05-30 16:22:00,62.2,37.6,30.01,SW,216,0.0,0.9,40,0.00,,,0.00,meteobridge,2013-05-30 23:22:00,
2013-05-30 16:37:00,61.3,39.2,30.01,SSW,200,0.0,6.0,44,0.00,,,0.00,meteobridge,2013-05-30 23:37:00,
2013-05-30 16:52:00,62.8,39.4,30.01,SSW,211,2.0,2.0,42,0.00,,,0.00,meteobridge,2013-05-30 23:52:00,
2013-05-30 17:07:00,62.8,38.7,30.00,SE,144,0.0,4.0,41,0.00,,,0.00,meteobridge,2013-05-31 00:07:00,
2013-05-30 17:22:00,63.1,38.5,30.00,South,170,0.0,4.0,40,0.00,,,0.00,meteobridge,2013-05-31 00:22:00,
2013-05-30 17:37:00,62.8,38.7,30.01,SSW,207,0.0,2.0,41,0.00,,,0.00,meteobridge,2013-05-31 00:37:00,
2013-05-30 17:52:00,62.6,38.5,30.01,ESE,115,0.0,4.0,41,0.00,,,0.00,meteobridge,2013-05-31 00:52:00,
2013-05-30 18:07:00,61.5,39.4,30.01,WSW,248,0.9,6.0,44,0.00,,,0.00,meteobridge,2013-05-31 01:07:00,
2013-05-30 18:22:00,61.3,39.2,30.01,SSW,199,0.9,0.9,44,0.00,,,0.00,meteobridge,2013-05-31 01:22:00,
2013-05-30 18:37:00,60.6,38.7,30.02,South,189,0.0,0.9,44,0.00,,,0.00,meteobridge,2013-05-31 01:37:00,
2013-05-30 18:52:00,60.4,39.6,30.02,SSE,163,0.0,2.0,46,0.00,,,0.00,meteobridge,2013-05-31 01:52:00,
2013-05-30 19:07:00,61.2,39.0,30.02,SE,146,0.0,0.9,44,0.00,,,0.00,meteobridge,2013-05-31 02:07:00,
2013-05-30 19:23:00,61.0,39.6,30.02,South,188,0.9,0.9,45,0.00,,,0.00,meteobridge,2013-05-31 02:23:00,
2013-05-30 19:38:00,61.3,38.7,30.02,SE,143,2.0,2.9,43,0.00,,,0.00,meteobridge,2013-05-31 02:38:00,
2013-05-30 19:53:00,59.5,39.4,30.03,SW,215,0.0,0.0,47,0.00,,,0.00,meteobridge,2013-05-31 02:53:00,
2013-05-30 20:08:00,58.3,39.7,30.03,SSE,152,0.0,0.0,50,0.00,,,0.00,meteobridge,2013-05-31 03:08:00,
2013-05-30 20:23:00,56.7,39.7,30.03,SSE,151,0.0,0.0,53,0.00,,,0.00,meteobridge,2013-05-31 03:23:00,
2013-05-30 20:38:00,55.2,39.7,30.03,SSE,150,0.0,0.0,56,0.00,,,0.00,meteobridge,2013-05-31 03:38:00,
2013-05-30 20:53:00,54.0,39.9,30.04,SSE,150,0.0,0.0,59,0.00,,,0.00,meteobridge,2013-05-31 03:53:00,
2013-05-30 21:08:00,52.7,39.6,30.05,SSE,150,0.0,0.0,61,0.00,,,0.00,meteobridge,2013-05-31 04:08:00,
2013-05-30 21:24:00,52.0,39.7,30.05,SSE,150,0.0,0.0,63,0.00,,,0.00,meteobridge,2013-05-31 04:24:00,
2013-05-30 21:39:00,51.1,39.4,30.06,SSE,150,0.0,0.0,64,0.00,,,0.00,meteobridge,2013-05-31 04:39:00,
2013-05-30 21:54:00,50.4,39.4,30.06,SSE,150,0.0,0.0,66,0.00,,,0.00,meteobridge,2013-05-31 04:54:00,
2013-05-30 22:09:00,50.0,38.7,30.06,SSE,150,0.0,0.0,65,0.00,,,0.00,meteobridge,2013-05-31 05:09:00,
2013-05-30 22:24:00,49.5,38.7,30.06,SSE,150,0.0,0.0,66,0.00,,,0.00,meteobridge,2013-05-31 05:24:00,
2013-05-30 22:40:00,49.6,38.3,30.07,SSE,150,0.0,0.0,65,0.00,,,0.00,meteobridge,2013-05-31 05:40:00,
2013-05-30 22:55:00,50.0,38.3,30.07,SSE,152,0.0,0.0,64,0.00,,,0.00,meteobridge,2013-05-31 05:55:00,
2013-05-30 23:10:00,50.2,38.1,30.08,SE,130,0.0,0.0,63,0.00,,,0.00,meteobridge,2013-05-31 06:10:00,
2013-05-30 23:25:00,49.8,38.1,30.08,SE,130,0.0,0.0,64,0.00,,,0.00,meteobridge,2013-05-31 06:25:00,
2013-05-30 23:40:00,49.6,37.9,30.08,SE,130,0.0,0.0,64,0.00,,,0.00,meteobridge,2013-05-31 06:40:00,
2013-05-30 23:55:00,49.1,38.3,30.09,SSE,150,0.0,0.0,66,0.00,,,0.00,meteobridge,2013-05-31 06:55:00,